KD8CJ Weather Reports


Display with metric or nautical units.
time (UTC)temp
F
wind
direction
speed
MPH
gust
MPH
rain 1hr
in
rain 24hr
in
rain mn
in
humidity
%
barometer
mb
20260905000034 74 244 0.0 0.0 0.00 0.02 0.01 88 1014.4
20260904234541 75 244 0.0 0.0 0.00 0.07 0.01 87 1014.7
20260904233015 76 244 0.0 1.0 0.00 0.22 0.01 87 1014.9
20260904231524 77 244 0.0 0.0 0.00 0.22 0.01 87 1014.9
20260904230028 77 244 0.0 0.0 0.00 0.22 0.01 85 1015.1
20260904224539 77 244 0.0 1.0 0.00 0.22 0.01 83 1015.4
20260904223035 78 220 0.0 0.0 0.00 0.22 0.01 82 1015.3
20260904221521 79 220 0.0 1.0 0.00 0.22 0.01 81 1014.5
20260904220041 79 256 0.0 1.0 0.00 0.22 0.01 80 1014.1
20260904214535 79 276 0.0 1.0 0.00 0.22 0.01 81 1014.0
20260904213030 79 279 0.0 4.0 0.00 0.22 0.01 80 1013.7
20260904211537 79 299 0.0 2.0 0.00 0.22 0.01 79 1013.3
20260904210033 80 299 0.0 3.0 0.00 0.22 0.01 77 1013.2
20260904204526 80 51 1.0 3.0 0.00 0.22 0.01 74 1013.5
20260904203043 80 352 0.0 1.0 0.00 0.22 0.01 74 1014.0
20260904201530 80 255 0.0 2.0 0.00 0.22 0.01 72 1014.1
20260904200032 80 271 0.0 1.0 0.00 0.22 0.01 74 1014.4
20260904194524 79 286 0.0 2.0 0.00 0.22 0.01 75 1014.5
20260904193032 79 258 0.0 1.0 0.00 0.22 0.01 76 1014.6
20260904191506 79 259 0.0 1.0 0.00 0.22 0.01 77 1015.0
20260904190005 79 257 0.0 2.0 0.00 0.22 0.01 79 1015.8
20260904184503 78 99 0.0 1.0 0.00 0.22 0.01 81 1016.3
20260904183005 78 100 0.0 2.0 0.00 0.22 0.01 85 1017.0
20260904181505 77 53 0.0 1.0 0.00 0.22 0.01 86 1017.3
20260904180006 78 13 0.0 1.0 0.00 0.22 0.01 83 1017.6
20260904174506 77 172 1.0 3.0 0.01 0.22 0.01 83 1017.1
20260904173006 76 148 0.0 1.0 0.01 0.22 0.01 87 1017.2
20260904171506 76 148 0.0 1.0 0.01 0.22 0.01 85 1017.6
20260904170013 78 171 0.0 1.0 0.01 0.22 0.01 81 1017.7
20260904164509 80 152 0.0 1.0 0.00 0.21 0.00 77 1017.5
20260904163007 83 105 1.0 2.0 0.00 0.21 0.00 71 1017.1
20260904161506 83 94 0.0 4.0 0.00 0.21 0.00 72 1016.5
20260904160007 81 147 0.0 2.0 0.00 0.21 0.00 71 1016.5
20260904154508 79 119 0.0 3.0 0.00 0.21 0.00 79 1016.4
20260904153005 77 233 0.0 4.0 0.00 0.21 0.00 82 1016.6
20260904151511 76 149 0.0 1.0 0.00 0.21 0.00 87 1016.8
20260904150014 74 142 0.0 1.0 0.00 0.21 0.00 89 1017.1
20260904144508 73 128 0.0 1.0 0.00 0.21 0.00 90 1017.1
20260904143010 73 289 0.0 0.0 0.00 0.21 0.00 91 1017.6
20260904141506 73 289 0.0 1.0 0.00 0.21 0.00 90 1016.8
20260904140007 72 289 0.0 1.0 0.00 0.21 0.00 92 1016.7
20260904134512 71 289 0.0 1.0 0.00 0.21 0.00 91 1017.1
20260904133009 71 289 0.0 1.0 0.00 0.21 0.00 90 1016.7
20260904131507 71 262 0.0 1.0 0.00 0.21 0.00 91 1016.6
20260904130008 71 259 0.0 1.0 0.00 0.21 0.00 91 1016.7
20260904124509 70 258 0.0 1.0 0.00 0.21 0.00 93 1016.6
20260904123012 69 257 0.0 1.0 0.00 0.21 0.00 94 1016.5
20260904121512 68 257 0.0 1.0 0.00 0.21 0.00 94 1016.4
20260904120016 68 247 0.0 2.0 0.00 0.21 0.00 95 1016.3
20260904114515 68 288 0.0 2.0 0.00 0.21 0.00 95 1016.3
20260904113026 67 288 0.0 1.0 0.00 0.21 0.00 95 1016.2
20260904111515 67 288 0.0 0.0 0.00 0.21 0.00 95 1015.9
20260904110016 67 288 0.0 1.0 0.00 0.21 0.00 95 1015.7
20260904104514 67 280 0.0 1.0 0.00 0.21 0.00 95 1015.4
20260904103015 67 255 0.0 1.0 0.00 0.21 0.00 95 1015.4
20260904101517 67 255 0.0 1.0 0.00 0.21 0.00 95 1015.5
20260904100014 67 255 0.0 1.0 0.00 0.21 0.00 95 1015.5
20260904094525 68 259 0.0 1.0 0.00 0.21 0.00 95 1015.7
20260904093020 68 259 0.0 0.0 0.00 0.21 0.00 95 1015.8
20260904091516 67 259 0.0 1.0 0.00 0.21 0.00 95 1015.5
20260904090017 68 257 0.0 1.0 0.00 0.21 0.00 95 1015.3
20260904084518 68 257 0.0 1.0 0.00 0.21 0.00 95 1015.3
20260904083018 68 257 0.0 0.0 0.00 0.21 0.00 95 1015.5
20260904081519 68 257 0.0 0.0 0.00 0.21 0.00 95 1015.6
20260904080020 68 257 0.0 1.0 0.00 0.21 0.00 95 1015.7
20260904074523 67 252 0.0 3.0 0.00 0.21 0.00 96 1015.6
20260904073026 68 136 0.0 0.0 0.00 0.21 0.00 96 1016.0
20260904071521 68 136 0.0 3.0 0.00 0.21 0.00 96 1016.4
20260904070023 67 271 0.0 0.0 0.00 0.21 0.00 95 1015.8
20260904064503 67 270 0.0 1.0 0.00 0.21 0.00 96 1015.7
20260904063017 67 271 0.0 0.0 0.00 0.21 0.00 95 1015.8
20260904061514 68 271 0.0 0.0 0.00 0.21 0.00 95 1015.7
20260904060025 68 271 0.0 1.0 0.00 0.21 0.00 95 1015.6
20260904054538 68 271 0.0 1.0 0.00 0.21 0.00 95 1015.6
20260904053003 68 271 0.0 0.0 0.00 0.21 0.00 95 1015.7
20260904051508 68 271 0.0 0.0 0.00 0.21 0.00 95 1015.8
20260904050028 68 271 0.0 1.0 0.00 0.21 0.00 94 1015.7
20260904044527 68 259 0.0 1.0 0.00 0.21 0.00 94 1015.6
20260904043025 68 259 0.0 1.0 0.00 0.21 0.00 94 1015.6
20260904041515 68 259 0.0 2.0 0.00 0.21 0.00 94 1015.6
20260904040031 68 267 0.0 1.0 0.00 0.21 0.00 94 1015.7
20260904034518 68 267 0.0 2.0 0.00 0.21 0.21 94 1015.6
20260904033023 68 283 0.0 1.0 0.00 0.21 0.21 94 1015.7
20260904031526 68 283 0.0 1.0 0.00 0.21 0.21 94 1015.9
20260904030009 68 285 0.0 2.0 0.00 0.21 0.21 94 1015.9
20260904024513 69 286 0.0 2.0 0.00 0.21 0.21 94 1016.1
20260904023020 69 308 0.0 1.0 0.01 0.21 0.21 94 1016.2
20260904021539 69 298 0.0 4.0 0.01 0.21 0.21 94 1016.5
20260904020030 68 298 0.0 1.0 0.01 0.21 0.21 94 1016.5
20260904014510 68 343 0.0 1.0 0.01 0.21 0.21 93 1016.4
20260904013012 69 254 0.0 2.0 0.00 0.20 0.20 93 1016.4
20260904011519 69 259 0.0 0.0 0.00 0.20 0.20 93 1016.3
20260904010004 69 259 0.0 0.0 0.00 0.20 0.20 93 1016.2
20260904004506 70 140 0.0 0.0 0.05 0.20 0.20 93 1015.8
20260904003020 70 140 0.0 1.0 0.20 0.20 0.20 93 1016.2
20260904001518 70 131 0.0 1.0 0.20 0.20 0.20 91 1016.3